Location: Miss�
(46.9484°N, 0.1922°W)
Time: 03:28:20
(UTC+00:00)

Meteor 1-14 Rocket - Pass Details

Date: 02 March 2021
Orbit: 834 x 918 km, 81.3° (Epoch: 16 April)

Event Time Altitude Azimuth Distance (km) Brightness Sun altitude
Rises 19:25:18 0° 193° (SSW) 3,400 7.4 -17.4°
Reaches altitude 10° 19:27:43 10° 194° (SSW) 2,460 6.7 -17.8°
Maximum altitude 19:33:17 79° 281° (W) 859 4.3 -18.7°
Drops below altitude 10° 19:38:51 10° 9° (N) 2,457 6.6 -19.6°
Sets 19:41:17 0° 11° (N) 3,396 7.4 -20.0°
